"Pseudo-MPEC" for C15FQ25

Created 2025 Oct 19 4:35:02 UT using Find_Orb

Click here for an explanation of pseudo-MPECs

 
 Astrometry: 
     C15FQ25* C2025 09 30.28038400 27 43.232+24 02 03.01   ~9U7Z 22.60GVNEOCPV00
     C15FQ25  C2025 09 30.28596600 27 43.520+24 01 44.51   ~9U7Z 21.93GVNEOCPV00
     C15FQ25  C2025 09 30.29154500 27 43.823+24 01 26.26   ~9U7Z 21.89GVNEOCPV00
     C15FQ25  C2025 09 30.29712700 27 44.140+24 01 07.61   ~9U7Z 22.07GVNEOCPV00
     C15FQ25 KC2025 09 30.36783900 27 48.085+23 57 09.97   ~9U9Z 21.60GVNEOCPV06
     C15FQ25 KC2025 09 30.37339800 27 48.416+23 56 50.89   ~9U9Z 21.93GVNEOCPV06
     C15FQ25 KC2025 09 30.37895600 27 48.740+23 56 32.17   ~9U9Z       VNEOCPV06
     C15FQ25 KC2025 09 30.38451400 27 49.079+23 56 13.16   ~9U9Z 22.09GVNEOCPV06
     C15FQ25  C2025 09 30.46284000 27 54.270+23 51 42.70   ~9UCK 21.4 RVNEOCP291
     C15FQ25  C2025 09 30.47431000 27 55.100+23 51 03.00   ~9UCK       VNEOCP291
     C15FQ25  C2025 09 30.48586000 27 55.940+23 50 22.30   ~9UCK 22.1 RVNEOCP291
     C15FQ25  C2025 10 01.16204000 29 03.670+23 12 04.70   ~A15K 22.2 RVNEOCP291
     C15FQ25 KC2025 10 01.17511700 29 02.70 +23 11 17.1    ~A155 21.9 GVNEOCPH21
     C15FQ25  C2025 10 01.17703000 29 04.620+23 11 14.60   ~A15K 21.5 RVNEOCP291
     C15FQ25 KC2025 10 01.18493800 29 03.30 +23 10 43.9    ~A155 22.1 GVNEOCPH21
     C15FQ25  C2025 10 01.19203000 29 05.630+23 10 24.10   ~A15K 22.1 RVNEOCP291

Station data:
(291) LPL/Spacewatch II  (N31.961669 W111.599905)  US/Arizona.  Observers J.
   V. Scotti, R. S. McMillan. 1.8-m f/2.7 reflector + CCD.
(H21) Astronomical Research Observatory, Westfield  (N39.483054 W87.968270)
   US/Illinois.  Observer R. Holmes. Measurers S. Foglia, L. Buzzi, T.
   Linder, R. Holmes. 0.40-m f/5.32 astrograph + CCD.
(V00) Kitt Peak-Bok  (N31.963125 W111.600190)  US/Arizona. Measurers T.
   Beuden, V. F. Carvajal, D. Fay, J. B. Fazekas, D. C. Fuls, A. R. Gibbs, A.
   D. Grauer, H. Gröller, J. K. Hogan, R. A. Kowalski, S. M. Larson, G. J.
   Leonard, D. Rankin, R. L. Seaman, F. C. Shelly, K. W. Wierzchoś. 2.25-m
   reflector + 4x4K mosaic CCD.
(V06) Catalina Sky Survey-Kuiper  (N32.416871 W110.732550)  US/Arizona.
   Measurers T. Beuden, V. F. Carvajal, D. Fay, J. B. Fazekas, D. C. Fuls, A.
   R. Gibbs, A. D. Grauer, H. Gröller, J. K. Hogan, R. A. Kowalski, S. M.
   Larson, G. J. Leonard, D. Rankin, R. L. Seaman, F. C. Shelly, K. W.
   Wierzchoś. 1.55-m reflector + CCD.

Orbital elements:  C15FQ25
   Perihelion 2025 Nov 17.972674 +/- 2.13 TT = 23:20:39.0 (JD 2460997.472674)
Epoch 2025 Oct  1.0 TT = JDT 2460949.5   Earth MOID: 0.0899      AutoNEOCP
M 324.604270388 +/- 1.5             (J2000 ecliptic)
n   0.737831068 +/- 0.00116         Peri.  211.290690 +/- 2.2
a   1.212917951 +/- 0.00127         Node   201.089936 +/- 0.13
e   0.11488569 +/- 0.00302          Incl.    8.309647 +/- 0.09
P   1.336/487.907d         H 25.88  G  0.15   U  8.2
q 1.073571030 +/- 0.00365    Q 1.352264872 +/- 0.00414
From 16 observations 2025 Sept. 30-Oct. 1 (21.9 hr); mean residual 0".27
Residuals in arcseconds: 
250930 V00  .53+  .05-    250930 V06  .47-  .26+    251001 H21  .13+  .08-    
250930 V00  .15+  .16-    250930 V06  .42-  .24+    251001 291  .47-  .02-    
250930 V00  .01-  .01+    250930 291  .31+  .31-    251001 H21  .03-  .23+    
250930 V00  .03+  .18-    250930 291  .45+  .07+    251001 291  .17-  .23-    
250930 V06  .38-  .20+    250930 291  .33+  .17-    
250930 V06  .36-  .03+    251001 291  .47+  .02+    

Ephemerides (geocentric):
Date (UTC) HH   RA             Dec           delta  r     elong  mag " sig PA
---- --------  ------------   ------------  ------ ------ -----  --- --------
2025 10 19 05  01 00 37.429   -00 15 43.67  .09250 1.0863 166.6 21.6  344 162
2025 10 19 06  01 00 42.424   -00 19 24.49  .09250 1.0863 166.6 21.6  345 162
2025 10 19 07  01 00 47.422   -00 23 05.26  .09251 1.0862 166.5 21.6  347 162
2025 10 19 08  01 00 52.422   -00 26 45.97  .09251 1.0862 166.4 21.6  348 162
2025 10 19 09  01 00 57.424   -00 30 26.63  .09251 1.0862 166.4 21.6  350 162
2025 10 19 10  01 01 02.429   -00 34 07.24  .09251 1.0861 166.3 21.6  352 162
2025 10 19 11  01 01 07.437   -00 37 47.79  .09251 1.0861 166.2 21.6  353 162
2025 10 19 12  01 01 12.447   -00 41 28.28  .09251 1.0861 166.1 21.6  355 162
2025 10 19 13  01 01 17.459   -00 45 08.71  .09251 1.0860 166.1 21.6  357 162
2025 10 19 14  01 01 22.474   -00 48 49.08  .09252 1.0860 166.0 21.6  358 162
2025 10 19 15  01 01 27.492   -00 52 29.39  .09252 1.0860 165.9 21.6  360 162
2025 10 19 16  01 01 32.512   -00 56 09.63  .09252 1.0859 165.9 21.6  362 162
2025 10 19 17  01 01 37.534   -00 59 49.81  .09253 1.0859 165.8 21.6  363 162
2025 10 19 18  01 01 42.559   -01 03 29.93  .09253 1.0859 165.7 21.7  365 162
2025 10 19 19  01 01 47.586   -01 07 09.98  .09253 1.0858 165.6 21.7  367 162
2025 10 19 20  01 01 52.616   -01 10 49.96  .09253 1.0858 165.6 21.7  368 162
2025 10 19 21  01 01 57.648   -01 14 29.87  .09254 1.0858 165.5 21.7  370 162
2025 10 19 22  01 02 02.683   -01 18 09.71  .09254 1.0857 165.4 21.7  372 162
2025 10 19 23  01 02 07.720   -01 21 49.47  .09255 1.0857 165.4 21.7  373 162
2025 10 20 00  01 02 12.760   -01 25 29.16  .09255 1.0857 165.3 21.7  375 162
2025 10 20 01  01 02 17.802   -01 29 08.78  .09256 1.0856 165.2 21.7  377 162
2025 10 20 02  01 02 22.847   -01 32 48.32  .09256 1.0856 165.1 21.7  378 162
2025 10 20 03  01 02 27.894   -01 36 27.78  .09256 1.0856 165.1 21.7  380 162
2025 10 20 04  01 02 32.943   -01 40 07.17  .09257 1.0855 165.0 21.7  382 162
2025 10 20 05  01 02 37.995   -01 43 46.47  .09257 1.0855 164.9 21.7  384 162
2025 10 20 06  01 02 43.049   -01 47 25.69  .09258 1.0855 164.9 21.7  385 162
2025 10 20 07  01 02 48.106   -01 51 04.83  .09259 1.0854 164.8 21.7  387 162
2025 10 20 08  01 02 53.165   -01 54 43.88  .09259 1.0854 164.7 21.7  389 162
2025 10 20 09  01 02 58.227   -01 58 22.85  .09260 1.0854 164.6 21.7  390 162
2025 10 20 10  01 03 03.291   -02 02 01.74  .09260 1.0853 164.6 21.7  392 162
2025 10 20 11  01 03 08.357   -02 05 40.53  .09261 1.0853 164.5 21.7  394 162
2025 10 20 12  01 03 13.426   -02 09 19.23  .09262 1.0853 164.4 21.7  395 162
2025 10 20 13  01 03 18.498   -02 12 57.85  .09262 1.0852 164.4 21.7  397 162
2025 10 20 14  01 03 23.571   -02 16 36.37  .09263 1.0852 164.3 21.7  399 162
2025 10 20 15  01 03 28.648   -02 20 14.80  .09264 1.0852 164.2 21.7  401 162
2025 10 20 16  01 03 33.726   -02 23 53.13  .09265 1.0851 164.1 21.7  402 162
2025 10 20 17  01 03 38.807   -02 27 31.37  .09265 1.0851 164.1 21.7  404 162
2025 10 20 18  01 03 43.891   -02 31 09.51  .09266 1.0851 164.0 21.7  406 162
2025 10 20 19  01 03 48.976   -02 34 47.55  .09267 1.0850 163.9 21.7  408 162
2025 10 20 20  01 03 54.065   -02 38 25.49  .09268 1.0850 163.9 21.7  409 162
2025 10 20 21  01 03 59.155   -02 42 03.33  .09269 1.0850 163.8 21.7  411 162
2025 10 20 22  01 04 04.248   -02 45 41.07  .09269 1.0849 163.7 21.7  413 162
2025 10 20 23  01 04 09.344   -02 49 18.71  .09270 1.0849 163.6 21.7  414 162
2025 10 21 00  01 04 14.441   -02 52 56.24  .09271 1.0849 163.6 21.7  416 162
2025 10 21 01  01 04 19.542   -02 56 33.67  .09272 1.0848 163.5 21.7  418 162
2025 10 21 02  01 04 24.644   -03 00 10.98  .09273 1.0848 163.4 21.7  420 162
2025 10 21 03  01 04 29.749   -03 03 48.19  .09274 1.0848 163.4 21.7  421 162
2025 10 21 04  01 04 34.857   -03 07 25.29  .09275 1.0847 163.3 21.7  423 162